﻿_id,日時,平均風速(m/s),平均風向,最大瞬間風速(m/s),最大風速時風向,気温(℃),湿度(%),10分間移動積算雨量(mm),1時間移動積算雨量(mm),日雨量(mm),累計雨量(mm),日射(日積算)(MJ/m2),日照(日積算)(min),現地気圧(hPa),海面気圧(hPa)
1,2023-03-27T00:00:00,1,北北西,2.1,北北東,9,89.6,0,0,20,22.5,3.2,0,1003.7,1017.9
2,2023-03-27T00:01:00,0.9,北北西,2.1,北北東,8.9,89.5,0,0,0,22.5,0,0,1003.8,1018
3,2023-03-27T00:02:00,0.9,北西,1.9,北北西,8.9,89.6,0,0,0,22.5,0,0,1003.8,1018
4,2023-03-27T00:03:00,0.8,北北西,1.6,北西,8.9,89.8,0,0,0,22.5,0,0,1003.8,1018
5,2023-03-27T00:04:00,0.8,北北西,1.8,北,8.8,89.9,0,0,0,22.5,0,0,1003.8,1018
6,2023-03-27T00:05:00,0.8,北北西,1.8,北,8.7,89.7,0,0,0,22.5,0,0,1003.8,1018
7,2023-03-27T00:06:00,0.8,北北西,1.8,北,8.8,90.3,0,0,0,22.5,0,0,1003.8,1018
8,2023-03-27T00:07:00,0.8,北北西,1.8,北,8.9,90.9,0,0,0,22.5,0,0,1003.8,1018
9,2023-03-27T00:08:00,0.8,北北西,1.8,北,8.9,91.1,0,0,0,22.5,0,0,1003.8,1018
10,2023-03-27T00:09:00,0.8,北北西,1.8,北,8.9,91.2,0,0,0,22.5,0,0,1003.8,1018
11,2023-03-27T00:10:00,0.9,北,1.8,北,8.9,91.2,0,0,0,22.5,0,0,1003.8,1018
12,2023-03-27T00:11:00,1,北,2.1,北,8.9,91.1,0,0,0,22.5,0,0,1003.8,1018
13,2023-03-27T00:12:00,1.1,北,2.2,北北東,8.8,90.9,0,0,0,22.5,0,0,1003.7,1017.9
14,2023-03-27T00:13:00,1.2,北,2.5,北北東,8.8,90.9,0,0,0,22.5,0,0,1003.7,1017.9
15,2023-03-27T00:14:00,1.2,北,3.2,北東,8.8,91.1,0,0,0,22.5,0,0,1003.7,1017.9
16,2023-03-27T00:15:00,1.3,北,3.2,北東,8.8,91.3,0,0,0,22.5,0,0,1003.8,1018
17,2023-03-27T00:16:00,1.4,北北東,3.2,北東,8.9,91.5,0,0,0,22.5,0,0,1003.8,1018
18,2023-03-27T00:17:00,1.5,北北東,3.2,北東,9,91.8,0,0,0,22.5,0,0,1003.9,1018.1
19,2023-03-27T00:18:00,1.5,北北東,3.2,北東,8.8,91.5,0,0,0,22.5,0,0,1003.8,1018
20,2023-03-27T00:19:00,1.6,北北東,3.2,北東,8.7,90.9,0,0,0,22.5,0,0,1003.8,1018
21,2023-03-27T00:20:00,1.6,北北東,3.2,北東,8.6,90.8,0,0,0,22.5,0,0,1003.9,1018.1
22,2023-03-27T00:21:00,1.6,北北東,3.2,北東,8.6,90.9,0,0,0,22.5,0,0,1003.9,1018.1
23,2023-03-27T00:22:00,1.6,北北東,4,北西,8.7,91.3,0,0,0,22.5,0,0,1003.9,1018.1
24,2023-03-27T00:23:00,1.6,北北東,4,北西,8.8,91.5,0,0,0,22.5,0,0,1004,1018.2
25,2023-03-27T00:24:00,1.5,北,4,北西,9,91.8,0,0,0,22.5,0,0,1004.1,1018.3
26,2023-03-27T00:25:00,1.4,北,4,北西,8.9,91.4,0,0,0,22.5,0,0,1004.1,1018.3
27,2023-03-27T00:26:00,1.4,北,4,北西,8.8,90.5,0,0,0,22.5,0,0,1004.1,1018.3
28,2023-03-27T00:27:00,1.3,北,4,北西,8.8,90.2,0,0,0,22.5,0,0,1004.1,1018.3
29,2023-03-27T00:28:00,1.4,北,4,北西,8.7,90.3,0,0,0,22.5,0,0,1004.1,1018.3
30,2023-03-27T00:29:00,1.4,北,4,北西,8.7,90,0,0,0,22.5,0,0,1004.1,1018.3
31,2023-03-27T00:30:00,1.4,北,4,北西,8.7,90.4,0,0,0,22.5,0,0,1004.1,1018.3
32,2023-03-27T00:31:00,1.4,北,4,北西,8.7,90.6,0,0,0,22.5,0,0,1004.2,1018.4
33,2023-03-27T00:32:00,1.3,北,2.9,北西,8.8,90.8,0,0,0,22.5,0,0,1004.2,1018.4
34,2023-03-27T00:33:00,1.3,北北東,2.8,東北東,8.7,90.8,0,0,0,22.5,0,0,1004.2,1018.4
35,2023-03-27T00:34:00,1.3,北北東,2.8,東北東,8.6,90.7,0,0,0,22.5,0,0,1004.2,1018.4
36,2023-03-27T00:35:00,1.4,北北東,2.8,東北東,8.7,90.9,0,0,0,22.5,0,0,1004.1,1018.3
37,2023-03-27T00:36:00,1.4,北北東,2.8,北,8.7,91.2,0,0,0,22.5,0,0,1004.1,1018.3
38,2023-03-27T00:37:00,1.4,北北東,2.8,北,8.7,91.2,0,0,0,22.5,0,0,1004.1,1018.3
39,2023-03-27T00:38:00,1.3,北北東,2.8,北,8.7,91.2,0,0,0,22.5,0,0,1004.1,1018.3
40,2023-03-27T00:39:00,1.3,北北東,2.8,北,8.7,91.3,0,0,0,22.5,0,0,1004.1,1018.3
41,2023-03-27T00:40:00,1.3,北北東,2.8,北,8.6,91.1,0,0,0,22.5,0,0,1004.2,1018.4
42,2023-03-27T00:41:00,1.2,北北東,2.8,北,8.6,91,0,0,0,22.5,0,0,1004.1,1018.3
43,2023-03-27T00:42:00,1.3,北北東,2.8,北,8.5,91,0,0,0,22.5,0,0,1004.1,1018.3
44,2023-03-27T00:43:00,1.3,北北東,2.8,北,8.5,91.1,0,0,0,22.5,0,0,1004.1,1018.3
45,2023-03-27T00:44:00,1.2,北北東,2.4,北東,8.5,91.4,0,0,0,22.5,0,0,1004.1,1018.3
46,2023-03-27T00:45:00,1.1,北北東,2.1,北西,8.5,91.6,0,0,0,22.5,0,0,1004,1018.2
47,2023-03-27T00:46:00,1.1,北北東,2.1,北西,8.5,91.9,0,0,0,22.5,0,0,1004,1018.2
48,2023-03-27T00:47:00,1.2,北北東,2.1,北西,8.4,92.1,0,0,0,22.5,0,0,1004,1018.2
49,2023-03-27T00:48:00,1.2,北,2.6,北北東,8.4,92.2,0,0,0,22.5,0,0,1004,1018.2
50,2023-03-27T00:49:00,1.2,北,2.6,北北東,8.5,92.5,0,0,0,22.5,0,0,1003.9,1018.1
51,2023-03-27T00:50:00,1.2,北,2.6,北北東,8.4,92.6,0,0,0,22.5,0,0,1004,1018.2
52,2023-03-27T00:51:00,1.1,北,2.6,北北東,8.4,92.5,0,0,0,22.5,0,0,1004,1018.2
53,2023-03-27T00:52:00,1.1,北,2.6,北北東,8.4,92.5,0,0,0,22.5,0,0,1004,1018.2
54,2023-03-27T00:53:00,1.1,北北西,2.6,北北東,8.4,92.6,0,0,0,22.5,0,0,1004.1,1018.3
55,2023-03-27T00:54:00,1.1,北北西,2.6,北北東,8.4,92.7,0,0,0,22.5,0,0,1004,1018.2
56,2023-03-27T00:55:00,1.1,北北西,2.6,北北東,8.4,92.5,0,0,0,22.5,0,0,1004.1,1018.3
57,2023-03-27T00:56:00,1,北北西,2.6,北北東,8.4,92.4,0,0,0,22.5,0,0,1004.1,1018.3
58,2023-03-27T00:57:00,1,北北西,2.6,北北東,8.4,92.4,0,0,0,22.5,0,0,1004.1,1018.3
59,2023-03-27T00:58:00,0.9,北北西,1.7,北西,8.4,92.4,0,0,0,22.5,0,0,1004.1,1018.3
60,2023-03-27T00:59:00,0.9,北北西,1.8,西北西,8.5,92.5,0,0,0,22.5,0,0,1004.1,1018.3
61,2023-03-27T01:00:00,0.9,北北西,1.8,西北西,8.4,92.4,0,0,0,22.5,0,0,1004.1,1018.3
62,2023-03-27T01:01:00,0.9,北北西,1.8,西北西,8.4,92.2,0,0,0,22.5,0,0,1004.1,1018.3
63,2023-03-27T01:02:00,0.8,北,1.8,西北西,8.4,92.1,0,0,0,22.5,0,0,1004.2,1018.4
64,2023-03-27T01:03:00,0.9,北,1.8,西北西,8.4,92.1,0,0,0,22.5,0,0,1004.1,1018.3
65,2023-03-27T01:04:00,0.8,北,1.8,西北西,8.4,91.9,0,0,0,22.5,0,0,1004.1,1018.3
66,2023-03-27T01:05:00,0.8,北,1.8,西北西,8.3,91.9,0,0,0,22.5,0,0,1004.1,1018.3
67,2023-03-27T01:06:00,0.9,北,2,西北西,8.3,92.1,0,0,0,22.5,0,0,1004.1,1018.3
68,2023-03-27T01:07:00,1,北,2.2,北西,8.3,92.1,0,0,0,22.5,0,0,1004.1,1018.3
69,2023-03-27T01:08:00,1.1,北,2.2,北西,8.3,92.1,0,0,0,22.5,0,0,1004.2,1018.4
70,2023-03-27T01:09:00,1.2,北,2.7,北西,8.2,92.1,0,0,0,22.5,0,0,1004.2,1018.4
71,2023-03-27T01:10:00,1.4,北北西,2.9,北西,8.2,92.1,0,0,0,22.5,0,0,1004.1,1018.3
72,2023-03-27T01:11:00,1.5,北北西,2.9,北西,8.2,92.3,0,0,0,22.5,0,0,1004.2,1018.4
73,2023-03-27T01:12:00,1.7,北北西,3.8,北西,8.2,92.3,0,0,0,22.5,0,0,1004.1,1018.3
74,2023-03-27T01:13:00,1.8,北西,3.8,北西,8.2,92.3,0,0,0,22.5,0,0,1004.2,1018.4
75,2023-03-27T01:14:00,2,北西,3.8,北西,8.3,92.3,0,0,0,22.5,0,0,1004.1,1018.3
76,2023-03-27T01:15:00,2.1,北西,3.8,北西,8.4,92.1,0,0,0,22.5,0,0,1004.1,1018.3
77,2023-03-27T01:16:00,2.1,北西,3.8,北西,8.4,91.7,0,0,0,22.5,0,0,1004.1,1018.3
78,2023-03-27T01:17:00,2,北西,4.2,北北東,8.5,91,0,0,0,22.5,0,0,1004.1,1018.3
79,2023-03-27T01:18:00,2.1,北北西,4.2,北北東,8.5,90.4,0,0,0,22.5,0,0,1004.1,1018.3
80,2023-03-27T01:19:00,2.1,北北西,4.2,北北東,8.6,90,0,0,0,22.5,0,0,1004.1,1018.3
81,2023-03-27T01:20:00,2.1,北北西,4.2,北北東,8.6,89.4,0,0,0,22.5,0,0,1004.1,1018.3
82,2023-03-27T01:21:00,2.1,北北西,4.2,北北東,8.7,89,0,0,0,22.5,0,0,1004.1,1018.3
83,2023-03-27T01:22:00,1.9,北北西,4.2,北北東,8.6,88.3,0,0,0,22.5,0,0,1004.2,1018.4
84,2023-03-27T01:23:00,1.8,北北西,4.2,北北東,8.5,87.4,0,0,0,22.5,0,0,1004.2,1018.4
85,2023-03-27T01:24:00,1.8,北北西,4.2,北北東,8.5,87,0,0,0,22.5,0,0,1004.2,1018.4
86,2023-03-27T01:25:00,1.7,北北西,4.2,北北東,8.5,86.7,0,0,0,22.5,0,0,1004.2,1018.4
87,2023-03-27T01:26:00,1.7,北北西,4.2,北北東,8.5,86.5,0,0,0,22.5,0,0,1004.2,1018.4
88,2023-03-27T01:27:00,1.7,北北西,3.8,北北東,8.5,86.7,0,0,0,22.5,0,0,1004.1,1018.3
89,2023-03-27T01:28:00,1.6,北北西,3.6,北北東,8.4,86.2,0,0,0,22.5,0,0,1004.1,1018.3
90,2023-03-27T01:29:00,1.5,北北西,3.6,北北東,8.5,86.2,0,0,0,22.5,0,0,1004.1,1018.3
91,2023-03-27T01:30:00,1.5,北,3.2,北,8.3,86,0,0,0,22.5,0,0,1004.1,1018.3
92,2023-03-27T01:31:00,1.5,北,3.2,北,8.2,85.7,0,0,0,22.5,0,0,1004.2,1018.4
93,2023-03-27T01:32:00,1.6,北,3.2,北,8.1,86,0,0,0,22.5,0,0,1004.2,1018.4
94,2023-03-27T01:33:00,1.5,北,3.2,北,8,86.5,0,0,0,22.5,0,0,1004.1,1018.3
95,2023-03-27T01:34:00,1.5,北北東,3.2,北,8,87.2,0,0,0,22.5,0,0,1004.1,1018.3
96,2023-03-27T01:35:00,1.6,北北東,3.5,北北東,7.9,87.6,0,0,0,22.5,0,0,1004.1,1018.3
97,2023-03-27T01:36:00,1.7,北北東,3.5,北北東,7.9,88.2,0,0,0,22.5,0,0,1004.1,1018.3
98,2023-03-27T01:37:00,1.9,北北東,3.9,北東,7.8,88.6,0,0,0,22.5,0,0,1004,1018.2
99,2023-03-27T01:38:00,1.9,北北東,3.9,北東,7.7,88.8,0,0,0,22.5,0,0,1004,1018.2
100,2023-03-27T01:39:00,1.8,北北東,3.9,北東,7.8,89.5,0,0,0,22.5,0,0,1004,1018.2
101,2023-03-27T01:40:00,1.7,北北東,3.9,北東,7.7,89.7,0,0,0,22.5,0,0,1004,1018.2
102,2023-03-27T01:41:00,1.7,北北東,3.9,北東,7.7,90,0,0,0,22.5,0,0,1004,1018.2
103,2023-03-27T01:42:00,1.7,北北東,3.9,北東,7.8,90.5,0,0,0,22.5,0,0,1004.1,1018.3
104,2023-03-27T01:43:00,1.7,北北東,3.9,北東,7.7,90.7,0,0,0,22.5,0,0,1004.1,1018.3
105,2023-03-27T01:44:00,1.6,北北東,3.9,北東,7.8,90.8,0,0,0,22.5,0,0,1004.1,1018.3
106,2023-03-27T01:45:00,1.5,北北東,3.9,北東,7.8,90.8,0,0,0,22.5,0,0,1004,1018.2
107,2023-03-27T01:46:00,1.6,北北東,3.9,北東,7.8,90.9,0,0,0,22.5,0,0,1004,1018.2
108,2023-03-27T01:47:00,1.5,北,3.6,北北東,7.7,90.7,0,0,0,22.5,0,0,1004,1018.2
109,2023-03-27T01:48:00,1.6,北,3.6,北北東,7.9,90.9,0,0,0,22.5,0,0,1004,1018.2
110,2023-03-27T01:49:00,1.7,北,3.6,北北東,7.8,90.9,0,0,0,22.5,0,0,1004,1018.2
111,2023-03-27T01:50:00,1.8,北,3.6,北北東,7.8,90.8,0,0,0,22.5,0,0,1004,1018.2
112,2023-03-27T01:51:00,1.8,北,3.6,北北東,7.9,90.9,0,0,0,22.5,0,0,1004,1018.2
113,2023-03-27T01:52:00,1.9,北,3.6,北北東,7.8,90.6,0,0,0,22.5,0,0,1003.9,1018.1
114,2023-03-27T01:53:00,2,北,3.6,北北東,7.8,90.4,0,0,0,22.5,0,0,1003.9,1018.1
115,2023-03-27T01:54:00,2,北,3.6,北北東,7.8,90.6,0,0,0,22.5,0,0,1003.9,1018.1
116,2023-03-27T01:55:00,2.1,北,3.6,北北東,7.7,90.5,0,0,0,22.5,0,0,1003.9,1018.1
117,2023-03-27T01:56:00,2,北,3.6,北北東,7.6,90,0,0,0,22.5,0,0,1003.9,1018.1
118,2023-03-27T01:57:00,2,北,3.2,北,7.6,90.1,0,0,0,22.5,0,0,1003.8,1018
119,2023-03-27T01:58:00,2,北,3.3,北,7.7,90.3,0,0,0,22.5,0,0,1003.8,1018
120,2023-03-27T01:59:00,1.9,北北東,3.3,北,7.7,90.6,0,0,0,22.5,0,0,1003.8,1018
121,2023-03-27T02:00:00,1.9,北北東,3.3,北,7.7,90.4,0,0,0,22.5,0,0,1003.8,1018
122,2023-03-27T02:01:00,1.9,北北東,3.3,北,7.7,90.2,0,0,0,22.5,0,0,1003.7,1017.9
123,2023-03-27T02:02:00,1.8,北北東,3.3,北,7.6,90.1,0,0,0,22.5,0,0,1003.7,1017.9
124,2023-03-27T02:03:00,1.8,北北東,3.3,北,7.7,90,0,0,0,22.5,0,0,1003.7,1017.9
125,2023-03-27T02:04:00,1.7,北北東,3.3,北,7.7,90.2,0,0,0,22.5,0,0,1003.7,1017.9
126,2023-03-27T02:05:00,1.7,北北東,3.3,北,7.7,90.1,0,0,0,22.5,0,0,1003.7,1017.9
127,2023-03-27T02:06:00,1.7,北,3.3,北,7.7,90.1,0,0,0,22.5,0,0,1003.8,1018
128,2023-03-27T02:07:00,1.6,北,3.3,北,7.7,90.1,0,0,0,22.5,0,0,1003.8,1018
129,2023-03-27T02:08:00,1.5,北,2.9,北,7.8,90.2,0,0,0,22.5,0,0,1003.8,1018
130,2023-03-27T02:09:00,1.6,北,2.9,北,7.9,90.2,0,0,0,22.5,0,0,1003.8,1018
131,2023-03-27T02:10:00,1.7,北,5.1,北西,8,90.3,0,0,0,22.5,0,0,1003.9,1018.1
132,2023-03-27T02:11:00,1.8,北北西,5.8,北西,8.1,89.9,0,0,0,22.5,0,0,1003.9,1018.1
133,2023-03-27T02:12:00,1.8,北北西,5.8,北西,8.1,89.5,0,0,0,22.5,0,0,1003.9,1018.1
134,2023-03-27T02:13:00,1.8,北北西,5.8,北西,8.2,88.7,0,0,0,22.5,0,0,1003.9,1018.1
135,2023-03-27T02:14:00,1.9,北北西,5.8,北西,8.2,88,0,0,0,22.5,0,0,1003.9,1018.1
136,2023-03-27T02:15:00,1.9,北北西,5.8,北西,8.1,87.3,0,0,0,22.5,0,0,1003.9,1018.1
137,2023-03-27T02:16:00,2.1,北北西,5.8,北西,8,86.6,0,0,0,22.5,0,0,1003.8,1018
138,2023-03-27T02:17:00,2.2,北北西,5.8,北西,8.1,86.4,0,0,0,22.5,0,0,1003.8,1018
139,2023-03-27T02:18:00,2.2,北北西,5.8,北西,8.2,86.3,0,0,0,22.5,0,0,1003.7,1017.9
140,2023-03-27T02:19:00,2.1,北北西,5.8,北西,8.2,85.8,0,0,0,22.5,0,0,1003.6,1017.8
141,2023-03-27T02:20:00,2.1,北北西,5.8,北西,8.2,85.3,0,0,0,22.5,0,0,1003.6,1017.8
142,2023-03-27T02:21:00,2,北北西,5.2,北西,8.2,85,0,0,0,22.5,0,0,1003.6,1017.8
143,2023-03-27T02:22:00,2.1,北北西,5.2,北西,8.2,84.9,0,0,0,22.5,0,0,1003.5,1017.7
144,2023-03-27T02:23:00,2.4,北北西,5.9,西北西,8.2,84.7,0,0,0,22.5,0,0,1003.5,1017.7
145,2023-03-27T02:24:00,2.4,北北西,5.9,西北西,8.1,84.5,0,0,0,22.5,0,0,1003.4,1017.6
146,2023-03-27T02:25:00,2.6,北西,5.9,西北西,8.2,84.2,0,0,0,22.5,0,0,1003.5,1017.7
147,2023-03-27T02:26:00,2.5,北西,5.9,西北西,8.1,84.1,0,0,0,22.5,0,0,1003.4,1017.6
148,2023-03-27T02:27:00,2.5,北西,5.9,西北西,8.2,84.1,0,0,0,22.5,0,0,1003.4,1017.6
149,2023-03-27T02:28:00,2.7,北西,5.9,西北西,8.2,84.2,0,0,0,22.5,0,0,1003.4,1017.6
150,2023-03-27T02:29:00,2.8,北西,5.9,西北西,8.2,84.1,0,0,0,22.5,0,0,1003.4,1017.6
151,2023-03-27T02:30:00,2.8,北西,5.9,西北西,8.1,83.8,0,0,0,22.5,0,0,1003.3,1017.5
152,2023-03-27T02:31:00,2.7,北北西,5.9,西北西,8,84,0,0,0,22.5,0,0,1003.2,1017.4
153,2023-03-27T02:32:00,2.5,北北西,5.9,西北西,8.2,84.4,0,0,0,22.5,0,0,1003.1,1017.3
154,2023-03-27T02:33:00,2.4,北北西,6.2,北,8,84.3,0,0,0,22.5,0,0,1003.1,1017.3
155,2023-03-27T02:34:00,2.5,北北西,6.2,北,8,84.3,0,0,0,22.5,0,0,1003,1017.2
156,2023-03-27T02:35:00,2.4,北北西,6.2,北,8.1,84.6,0,0,0,22.5,0,0,1003,1017.2
157,2023-03-27T02:36:00,2.4,北北西,6.2,北,8.1,84.6,0,0,0,22.5,0,0,1003,1017.2
158,2023-03-27T02:37:00,2.3,北北西,6.2,北,8.1,84.5,0,0,0,22.5,0,0,1003,1017.2
159,2023-03-27T02:38:00,2.1,北北西,6.2,北,8.1,84.5,0,0,0,22.5,0,0,1003.1,1017.3
160,2023-03-27T02:39:00,2,北北西,6.2,北,8.1,84.6,0,0,0,22.5,0,0,1003.2,1017.4
161,2023-03-27T02:40:00,1.9,北北西,6.2,北,8,84.4,0,0,0,22.5,0,0,1003.2,1017.4
162,2023-03-27T02:41:00,1.9,北北西,6.2,北,8,84.6,0,0,0,22.5,0,0,1003.3,1017.5
163,2023-03-27T02:42:00,1.8,北北西,6.2,北,8,84.7,0,0,0,22.5,0,0,1003.3,1017.5
164,2023-03-27T02:43:00,1.7,北北西,5.6,北,8,85.1,0,0,0,22.5,0,0,1003.3,1017.5
165,2023-03-27T02:44:00,1.4,北北西,4.2,西北西,7.9,85.2,0,0,0,22.5,0,0,1003.2,1017.4
166,2023-03-27T02:45:00,1.3,北,3.6,北西,8,85.4,0,0,0,22.5,0,0,1003.2,1017.4
167,2023-03-27T02:46:00,1.2,北,2.9,北西,7.9,85.6,0,0,0,22.5,0,0,1003.2,1017.4
168,2023-03-27T02:47:00,1.2,北,2.2,北西,7.9,86,0,0,0,22.5,0,0,1003.2,1017.4
169,2023-03-27T02:48:00,1.1,北,2.2,北西,7.9,86,0,0,0,22.5,0,0,1003.2,1017.4
170,2023-03-27T02:49:00,1.1,北北東,2.3,北北東,7.7,86.1,0,0,0,22.5,0,0,1003.2,1017.4
171,2023-03-27T02:50:00,1,北北東,2.3,北北東,7.7,86.1,0,0,0,22.5,0,0,1003.2,1017.4
172,2023-03-27T02:51:00,1,北北東,2.3,北北東,7.6,86.4,0,0,0,22.5,0,0,1003.2,1017.4
173,2023-03-27T02:52:00,1,北北東,2.6,北西,7.7,86.9,0,0,0,22.5,0,0,1003.2,1017.4
174,2023-03-27T02:53:00,1.2,北北東,3.9,北西,7.7,87.2,0,0,0,22.5,0,0,1003.2,1017.4
175,2023-03-27T02:54:00,1.4,北北東,3.9,北西,7.9,87.9,0,0,0,22.5,0,0,1003.2,1017.4
176,2023-03-27T02:55:00,1.6,北,4.3,北西,8.1,88.3,0,0,0,22.5,0,0,1003.3,1017.5
177,2023-03-27T02:56:00,1.7,北,4.3,北西,8.2,88,0,0,0,22.5,0,0,1003.3,1017.5
178,2023-03-27T02:57:00,1.9,北,4.3,北西,8.2,87,0,0,0,22.5,0,0,1003.3,1017.5
179,2023-03-27T02:58:00,2,北北西,4.3,北西,8.3,86.1,0,0,0,22.5,0,0,1003.4,1017.6
180,2023-03-27T02:59:00,2.1,北北西,4.3,北西,8.4,85.5,0,0,0,22.5,0,0,1003.4,1017.6
181,2023-03-27T03:00:00,2.2,北西,4.3,北西,8.3,84.7,0,0,0,22.5,0,0,1003.4,1017.6
182,2023-03-27T03:01:00,2.3,北西,4.3,北西,8.3,84.2,0,0,0,22.5,0,0,1003.3,1017.5
183,2023-03-27T03:02:00,2.2,北西,4.3,北西,8.2,83.5,0,0,0,22.5,0,0,1003.4,1017.6
184,2023-03-27T03:03:00,2.1,北西,4.3,北西,8.1,83.2,0,0,0,22.5,0,0,1003.5,1017.7
185,2023-03-27T03:04:00,1.9,北西,4.3,北西,8,83.2,0,0,0,22.5,0,0,1003.5,1017.7
186,2023-03-27T03:05:00,1.7,北西,3.8,北西,8,83.3,0,0,0,22.5,0,0,1003.5,1017.7
187,2023-03-27T03:06:00,1.5,北西,3.8,北西,7.9,83.5,0,0,0,22.5,0,0,1003.5,1017.7
188,2023-03-27T03:07:00,1.2,北西,3.4,北西,7.8,83.7,0,0,0,22.5,0,0,1003.4,1017.6
189,2023-03-27T03:08:00,1.1,北北西,2.8,西北西,7.7,84.2,0,0,0,22.5,0,0,1003.5,1017.7
190,2023-03-27T03:09:00,1,北北西,2.8,西北西,7.6,84.5,0,0,0,22.5,0,0,1003.5,1017.7
191,2023-03-27T03:10:00,0.9,北,2.2,西北西,7.6,85.2,0,0,0,22.5,0,0,1003.6,1017.8
192,2023-03-27T03:11:00,0.9,北北東,1.8,北北西,7.5,85.8,0,0,0,22.5,0,0,1003.5,1017.7
193,2023-03-27T03:12:00,0.9,北北東,1.9,北東,7.5,86.2,0,0,0,22.5,0,0,1003.4,1017.6
194,2023-03-27T03:13:00,1,北北東,1.9,北東,7.5,86.8,0,0,0,22.5,0,0,1003.3,1017.5
195,2023-03-27T03:14:00,1.1,北東,1.9,北東,7.5,87.2,0,0,0,22.5,0,0,1003.3,1017.5
196,2023-03-27T03:15:00,1.2,北東,2,北北東,7.5,87.8,0,0,0,22.5,0,0,1003.4,1017.6
197,2023-03-27T03:16:00,1.3,北東,2,北北東,7.4,88.2,0,0,0,22.5,0,0,1003.4,1017.6
198,2023-03-27T03:17:00,1.4,北東,2,北北東,7.5,88.6,0,0,0,22.5,0,0,1003.4,1017.6
199,2023-03-27T03:18:00,1.4,北東,2,北北東,7.4,88.9,0,0,0,22.5,0,0,1003.4,1017.6
200,2023-03-27T03:19:00,1.4,北東,2,北北東,7.4,89.1,0,0,0,22.5,0,0,1003.4,1017.6
201,2023-03-27T03:20:00,1.4,北東,2,北北東,7.4,89.3,0,0,0,22.5,0,0,1003.4,1017.6
202,2023-03-27T03:21:00,1.4,北北東,2,北北東,7.4,89.4,0,0,0,22.5,0,0,1003.4,1017.6
203,2023-03-27T03:22:00,1.4,北北東,2,北北東,7.4,89.7,0,0,0,22.5,0,0,1003.5,1017.7
204,2023-03-27T03:23:00,1.3,北北東,2,北北東,7.4,90,0,0,0,22.5,0,0,1003.5,1017.7
205,2023-03-27T03:24:00,1.3,北北東,2,北北東,7.4,90.3,0,0,0,22.5,0,0,1003.5,1017.7
206,2023-03-27T03:25:00,1.3,北北東,2,北東,7.5,90.4,0,0,0,22.5,0,0,1003.5,1017.7
207,2023-03-27T03:26:00,1.2,北北東,1.8,北北東,7.4,90.5,0,0,0,22.5,0,0,1003.6,1017.8
208,2023-03-27T03:27:00,1.2,北東,1.8,北北東,7.3,90.3,0,0,0,22.5,0,0,1003.7,1018
209,2023-03-27T03:28:00,1.2,北東,1.8,北北東,7.3,90.4,0,0,0,22.5,0,0,1003.7,1018
210,2023-03-27T03:29:00,1.1,北東,1.8,北北東,7.3,90.4,0,0,0,22.5,0,0,1003.8,1018.1
211,2023-03-27T03:30:00,1.1,北東,1.8,北北東,7.4,90.7,0,0,0,22.5,0,0,1003.9,1018.2
212,2023-03-27T03:31:00,1,北東,1.7,北北東,7.4,90.9,0,0,0,22.5,0,0,1004,1018.3
213,2023-03-27T03:32:00,1,北東,1.7,北北東,7.4,90.9,0,0,0,22.5,0,0,1004.1,1018.4
214,2023-03-27T03:33:00,1,北東,1.6,北東,7.4,90.9,0,0,0,22.5,0,0,1004.1,1018.4
215,2023-03-27T03:34:00,0.9,北東,1.5,北東,7.4,90.9,0,0,0,22.5,0,0,1004.2,1018.5
216,2023-03-27T03:35:00,0.9,北東,1.4,北北東,7.5,91,0,0,0,22.5,0,0,1004.2,1018.5
217,2023-03-27T03:36:00,0.9,北東,1.3,北東,7.4,90.9,0,0,0,22.5,0,0,1004.1,1018.4
218,2023-03-27T03:37:00,0.8,北東,1.3,北東,7.4,90.8,0,0,0,22.5,0,0,1004.1,1018.4
219,2023-03-27T03:38:00,0.7,北東,1.3,北東,7.3,90.8,0,0,0,22.5,0,0,1004.1,1018.4
220,2023-03-27T03:39:00,0.7,北東,1.3,北東,7.4,90.9,0,0,0,22.5,0,0,1004.1,1018.4
221,2023-03-27T03:40:00,0.7,北東,1.3,北東,7.5,91.2,0,0,0,22.5,0,0,1004.1,1018.3
222,2023-03-27T03:41:00,0.7,北東,1.3,北東,7.5,91.4,0,0,0,22.5,0,0,1004.1,1018.3
223,2023-03-27T03:42:00,0.7,北東,1.3,北東,7.5,91.3,0,0,0,22.5,0,0,1004.2,1018.5
224,2023-03-27T03:43:00,0.6,北東,1,北東,7.5,91,0,0,0,22.5,0,0,1004.3,1018.6
225,2023-03-27T03:44:00,0.6,北東,1,北東,7.4,90.7,0,0,0,22.5,0,0,1004.3,1018.6
226,2023-03-27T03:45:00,0.5,東北東,1,北東,7.4,90.7,0,0,0,22.5,0,0,1004.4,1018.7
227,2023-03-27T03:46:00,0.5,東北東,1,北東,7.5,90.9,0,0,0,22.5,0,0,1004.4,1018.7
228,2023-03-27T03:47:00,0.5,東北東,1,北東,7.4,90.9,0,0,0,22.5,0,0,1004.5,1018.8
229,2023-03-27T03:48:00,0.5,東北東,1,北東,7.4,90.8,0,0,0,22.5,0,0,1004.6,1018.9
230,2023-03-27T03:49:00,0.5,東北東,1,北東,7.4,91,0,0,0,22.5,0,0,1004.6,1018.9
231,2023-03-27T03:50:00,0.5,東北東,1,北東,7.4,91.1,0,0,0,22.5,0,0,1004.6,1018.9
232,2023-03-27T03:51:00,0.4,東北東,1,北東,7.4,91,0,0,0,22.5,0,0,1004.6,1018.9
233,2023-03-27T03:52:00,0.4,東北東,0.7,東北東,7.4,91.1,0,0,0,22.5,0,0,1004.6,1018.9
234,2023-03-27T03:53:00,0.4,東北東,0.7,東北東,7.5,91.2,0,0,0,22.5,0,0,1004.6,1018.9
235,2023-03-27T03:54:00,0.4,東北東,0.7,東北東,7.5,91.4,0,0,0,22.5,0,0,1004.6,1018.9
236,2023-03-27T03:55:00,0.4,東北東,1.2,北東,7.5,91.5,0,0,0,22.5,0,0,1004.7,1019
237,2023-03-27T03:56:00,0.5,東北東,1.4,北北東,7.5,91.6,0,0,0,22.5,0,0,1004.6,1018.9
238,2023-03-27T03:57:00,0.6,北東,1.4,北北東,7.6,91.8,0,0,0,22.5,0,0,1004.6,1018.9
239,2023-03-27T03:58:00,0.7,北東,1.5,北北東,7.6,92,0,0,0,22.5,0,0,1004.6,1018.9
240,2023-03-27T03:59:00,0.7,北東,1.5,北北東,7.6,91.9,0,0,0,22.5,0,0,1004.6,1018.9
241,2023-03-27T04:00:00,0.8,北東,1.5,北北東,7.6,92,0,0,0,22.5,0,0,1004.6,1018.9
242,2023-03-27T04:01:00,0.9,北東,1.8,北東,7.6,91.9,0,0,0,22.5,0,0,1004.7,1019
243,2023-03-27T04:02:00,0.9,北北東,1.8,北東,7.5,91.8,0,0,0,22.5,0,0,1004.7,1019
244,2023-03-27T04:03:00,0.9,北北東,1.8,北東,7.5,91.8,0,0,0,22.5,0,0,1004.6,1018.9
245,2023-03-27T04:04:00,0.9,北北東,1.8,北東,7.4,91.7,0,0,0,22.5,0,0,1004.7,1019
246,2023-03-27T04:05:00,0.9,北北東,1.8,北東,7.5,91.7,0,0,0,22.5,0,0,1004.6,1018.9
247,2023-03-27T04:06:00,0.8,北北東,1.8,北東,7.5,92,0,0,0,22.5,0,0,1004.7,1019
248,2023-03-27T04:07:00,0.8,北北東,1.8,北東,7.4,91.9,0,0,0,22.5,0,0,1004.7,1019
249,2023-03-27T04:08:00,0.7,北北東,1.8,北東,7.4,92.1,0,0,0,22.5,0,0,1004.7,1019
250,2023-03-27T04:09:00,0.7,北北東,1.8,北東,7.4,92.3,0,0,0,22.5,0,0,1004.7,1019
251,2023-03-27T04:10:00,0.6,北北東,1.8,北東,7.4,92.5,0,0,0,22.5,0,0,1004.7,1019
252,2023-03-27T04:11:00,0.6,北北東,1.2,北北東,7.4,92.6,0,0,0,22.5,0,0,1004.7,1019
253,2023-03-27T04:12:00,0.6,北北東,1.3,北北東,7.4,92.6,0,0,0,22.5,0,0,1004.7,1019
254,2023-03-27T04:13:00,0.7,北北東,1.3,北北東,7.3,92.8,0,0,0,22.5,0,0,1004.7,1019
255,2023-03-27T04:14:00,0.7,北北東,1.3,北北東,7.3,92.9,0,0,0,22.5,0,0,1004.7,1019
256,2023-03-27T04:15:00,0.8,北北東,1.6,北北東,7.3,93,0,0,0,22.5,0,0,1004.7,1019
257,2023-03-27T04:16:00,0.8,北北東,1.6,北北東,7.3,93.2,0,0,0,22.5,0,0,1004.7,1019
258,2023-03-27T04:17:00,0.9,北北東,1.6,北北東,7.4,93.5,0,0,0,22.5,0,0,1004.7,1019
259,2023-03-27T04:18:00,0.9,北北東,1.6,北北東,7.4,93.8,0,0,0,22.5,0,0,1004.6,1018.9
260,2023-03-27T04:19:00,1,北北東,1.8,北東,7.4,93.9,0,0,0,22.5,0,0,1004.6,1018.9
261,2023-03-27T04:20:00,1.1,北北東,1.8,北東,7.4,94,0,0,0,22.5,0,0,1004.6,1018.9
262,2023-03-27T04:21:00,1.1,北北東,1.8,北東,7.4,94.1,0,0,0,22.5,0,0,1004.6,1018.9
263,2023-03-27T04:22:00,1.1,北東,1.8,北東,7.3,94,0,0,0,22.5,0,0,1004.6,1018.9
264,2023-03-27T04:23:00,1.1,北東,1.8,北東,7.3,94,0,0,0,22.5,0,0,1004.6,1018.9
265,2023-03-27T04:24:00,1.1,北東,1.8,北東,7.3,94.1,0,0,0,22.5,0,0,1004.7,1019
266,2023-03-27T04:25:00,1.2,北東,1.8,北東,7.3,94.2,0,0,0,22.5,0,0,1004.7,1019
267,2023-03-27T04:26:00,1.2,北東,1.8,北東,7.3,94.4,0,0,0,22.5,0,0,1004.7,1019
268,2023-03-27T04:27:00,1.2,北東,1.8,北東,7.2,94.3,0,0,0,22.5,0,0,1004.7,1019
269,2023-03-27T04:28:00,1.2,北東,2.1,北東,7.3,94.5,0,0,0,22.5,0,0,1004.7,1019
270,2023-03-27T04:29:00,1.1,北東,2.1,北東,7.3,94.6,0,0,0,22.5,0,0,1004.7,1019
271,2023-03-27T04:30:00,1.1,北東,2.1,北東,7.3,94.8,0,0,0,22.5,0,0,1004.7,1019
272,2023-03-27T04:31:00,1.1,北東,2.1,北東,7.4,94.9,0,0,0,22.5,0,0,1004.7,1019
273,2023-03-27T04:32:00,1.1,北東,2.1,北東,7.4,95,0,0,0,22.5,0,0,1004.7,1019
274,2023-03-27T04:33:00,1.1,北東,2.1,北東,7.4,94.9,0,0,0,22.5,0,0,1004.7,1019
275,2023-03-27T04:34:00,1,北東,2.1,北東,7.5,95,0,0,0,22.5,0,0,1004.7,1019
276,2023-03-27T04:35:00,1,北東,2.1,北東,7.5,95.1,0,0,0,22.5,0,0,1004.7,1019
277,2023-03-27T04:36:00,0.9,北東,2.1,北東,7.5,95.1,0,0,0,22.5,0,0,1004.7,1019
278,2023-03-27T04:37:00,0.9,北東,2.1,北東,7.7,95.2,0,0,0,22.5,0,0,1004.7,1018.9
279,2023-03-27T04:38:00,0.9,北東,1.8,東北東,7.4,94.7,0,0,0,22.5,0,0,1004.6,1018.9
280,2023-03-27T04:39:00,0.9,北東,1.9,北東,7.4,94.2,0,0,0,22.5,0,0,1004.6,1018.9
281,2023-03-27T04:40:00,1,北東,2,北北東,7.4,93.9,0,0,0,22.5,0,0,1004.6,1018.9
282,2023-03-27T04:41:00,1,北東,2,北北東,7.4,93.9,0,0,0,22.5,0,0,1004.7,1019
283,2023-03-27T04:42:00,1,北東,2,北北東,7.5,94.1,0,0,0,22.5,0,0,1004.7,1019
284,2023-03-27T04:43:00,0.9,北東,2,北北東,7.4,93.9,0,0,0,22.5,0,0,1004.7,1019
285,2023-03-27T04:44:00,1,北東,2,北北東,7.4,93.7,0,0,0,22.5,0,0,1004.7,1019
286,2023-03-27T04:45:00,1,北東,2,北北東,7.4,93.5,0,0,0,22.5,0,0,1004.7,1019
287,2023-03-27T04:46:00,1.1,北東,2,北北東,7.4,93.5,0,0,0,22.5,0,0,1004.8,1019.1
288,2023-03-27T04:47:00,1.1,北東,2,北北東,7.5,93.7,0,0,0,22.5,0,0,1004.7,1019
289,2023-03-27T04:48:00,1.1,北東,2,北北東,7.5,93.7,0,0,0,22.5,0,0,1004.7,1019
290,2023-03-27T04:49:00,1,北東,2,北北東,7.5,93.7,0,0,0,22.5,0,0,1004.7,1019
291,2023-03-27T04:50:00,0.9,北東,1.9,北東,7.4,93.5,0,0,0,22.5,0,0,1004.7,1019
292,2023-03-27T04:51:00,0.9,北東,1.9,北東,7.4,93.4,0,0,0,22.5,0,0,1004.7,1019
293,2023-03-27T04:52:00,0.9,北東,1.9,北東,7.5,93.4,0,0,0,22.5,0,0,1004.7,1019
294,2023-03-27T04:53:00,0.9,北東,1.9,北東,7.4,93.5,0,0,0,22.5,0,0,1004.7,1019
295,2023-03-27T04:54:00,0.9,北東,1.9,北東,7.4,93.4,0,0,0,22.5,0,0,1004.7,1019
296,2023-03-27T04:55:00,0.9,北東,1.6,北東,7.4,93.3,0,0,0,22.5,0,0,1004.8,1019.1
297,2023-03-27T04:56:00,0.8,北東,1.6,北東,7.3,93.2,0,0,0,22.5,0,0,1004.7,1019
298,2023-03-27T04:57:00,0.8,北北東,1.6,北東,7.3,93.1,0,0,0,22.5,0,0,1004.7,1019
299,2023-03-27T04:58:00,0.8,北北東,1.6,北東,7.1,93,0,0,0,22.5,0,0,1004.7,1019
300,2023-03-27T04:59:00,0.8,北北東,1.6,北東,7.2,93.2,0,0,0,22.5,0,0,1004.7,1019
301,2023-03-27T05:00:00,0.8,北,1.6,北東,7,93.2,0,0,0,22.5,0,0,1004.7,1019
302,2023-03-27T05:01:00,0.7,北,1.6,北東,7,93.2,0,0,0,22.5,0,0,1004.7,1019
303,2023-03-27T05:02:00,0.7,北北西,1.6,北東,6.9,93.3,0,0,0,22.5,0,0,1004.8,1019.1
304,2023-03-27T05:03:00,0.7,北北西,1.6,北東,6.9,93.5,0,0,0,22.5,0,0,1004.8,1019.1
305,2023-03-27T05:04:00,0.7,北西,1.5,北東,6.9,93.6,0,0,0,22.5,0,0,1004.9,1019.2
306,2023-03-27T05:05:00,0.7,北西,1.5,北西,7,94.1,0,0,0,22.5,0,0,1004.9,1019.2
307,2023-03-27T05:06:00,0.8,北西,1.5,北西,7,94.4,0,0,0,22.5,0,0,1004.9,1019.2
308,2023-03-27T05:07:00,0.8,北西,1.5,北西,7,94.7,0,0,0,22.5,0,0,1004.8,1019.1
309,2023-03-27T05:08:00,0.8,北西,1.5,北西,7,94.8,0,0,0,22.5,0,0,1004.8,1019.1
310,2023-03-27T05:09:00,0.8,北西,1.5,北西,6.9,94.9,0,0,0,22.5,0,0,1004.8,1019.1
311,2023-03-27T05:10:00,0.9,北西,1.9,北西,6.9,94.7,0,0,0,22.5,0,0,1004.8,1019.1
312,2023-03-27T05:11:00,0.9,北西,1.9,北西,6.9,95,0,0,0,22.5,0,0,1004.8,1019.1
313,2023-03-27T05:12:00,0.9,北西,1.9,北西,6.9,95,0,0,0,22.5,0,0,1004.7,1019
314,2023-03-27T05:13:00,1,北北西,2.1,北北東,6.8,95,0,0,0,22.5,0,0,1004.7,1019
315,2023-03-27T05:14:00,1.1,北北西,2.5,北北東,6.9,95.3,0,0,0,22.5,0,0,1004.7,1019
316,2023-03-27T05:15:00,1.2,北北西,2.7,北北東,6.9,95.3,0,0,0,22.5,0,0,1004.8,1019.1
317,2023-03-27T05:16:00,1.3,北,2.7,北北東,6.8,95.3,0,0,0,22.5,0,0,1004.7,1019
318,2023-03-27T05:17:00,1.4,北,2.7,北北東,6.8,95.3,0,0,0,22.5,0,0,1004.7,1019
319,2023-03-27T05:18:00,1.5,北,2.7,北北東,6.9,95.5,0,0,0,22.5,0,0,1004.7,1019